This is the latest recevied weather packets stored in our database for station/object JF7ELG-13. If no packets are shown the sender has not sent any weather packets the latest 10 day(s).
| Time | Temp. | Humidity | Pressure | Rain* | Wind** | Luminosity | Snow |
|---|---|---|---|---|---|---|---|
| 1777948407 | 22.78° C | 34% | 1015.5 hPa | 0 mm | - | - | - |
| 1777947526 | 22.78° C | 35% | 1015.5 hPa | 0 mm | - | - | - |
| 1777946618 | 22.22° C | 37% | 1015.4 hPa | 0 mm | - | - | - |
| 1777945710 | 22.22° C | 37% | 1015.7 hPa | 0 mm | - | - | - |
| 1777944805 | 21.11° C | 39% | 1015.6 hPa | 0 mm | - | - | - |
| 1777943921 | 21.67° C | 37% | 1015.7 hPa | 0 mm | - | - | - |
| 1777943015 | 21.11° C | 39% | 1015.6 hPa | 0 mm | - | - | - |
| 1777942098 | 21.11° C | 41% | 1015.4 hPa | 0 mm | - | - | - |
| 1777941235 | 20° C | 42% | 1015.3 hPa | 0 mm | - | - | - |
| 1777940339 | 20° C | 44% | 1015.2 hPa | 0 mm | - | - | - |
| 1777939427 | 18.89° C | 45% | 1015 hPa | 0 mm | - | - | - |
| 1777938547 | 18.89° C | 45% | 1014.8 hPa | 0 mm | - | - | - |
| 1777937637 | 18.33° C | 47% | 1014.8 hPa | 0 mm | - | - | - |
| 1777936743 | 17.22° C | 49% | 1014.8 hPa | 0 mm | - | - | - |
| 1777935811 | 16.11° C | 51% | 1014.7 hPa | 0 mm | - | - | - |
| 1777934938 | 15.56° C | 53% | 1014.5 hPa | 0 mm | - | - | - |
| 1777934009 | 15° C | 57% | 1014.3 hPa | 0 mm | - | - | - |
| 1777933133 | 14.44° C | 58% | 1013.9 hPa | 0 mm | - | - | - |
| 1777932205 | 13.89° C | 60% | 1013.7 hPa | 0 mm | - | - | - |
| 1777931327 | 12.78° C | 61% | 1013.5 hPa | 0 mm | - | - | - |
| 1777930406 | 12.78° C | 63% | 1013.5 hPa | 0 mm | - | - | - |
| 1777929529 | 12.22° C | 63% | 1013 hPa | 0 mm | - | - | - |
| 1777928628 | 11.67° C | 65% | 1013.1 hPa | 0 mm | - | - | - |
| 1777927745 | 11.11° C | 66% | 1013 hPa | 0 mm | - | - | - |
| 1777926834 | 11.11° C | 65% | 1012.5 hPa | 0 mm | - | - | - |
* Rain latest hour (hover to see other rain measurements)
** Current wind speed in m/s (hover to see current wind gust speed)